[[{"header":{"parameterUnit":"m.s-1","parameterCategory":1,"la1":30.2991,"la2":30.254,"lo1":-89.0895,"lo2":-89.0444,"dy":0.0017,"dx":0.0017,"nx":28,"ny":28,"refTime":"2023-10-22T21:00:00:Z","depth":0,"parameterNumber":2,"parameterNumberName":"U-component_of_WINDS"},"data":[0,0,0,0,0,0,0,0,0,0,0,0,0,0,0,0,0,0,0,0,0,0,0,0,0,0,0,0,0,0,0,0,0,0,0,0,0,0,0,0,0,0,0,0,0,0,0,0,0,0,0,0,0,0,0,0,0,0,-2.822,-2.822,0,-2.8257,-2.8258,-2.8258,-2.8209,-2.8207,-2.8205,-2.8204,-2.8241,-2.8244,-2.8247,0,0,0,0,0,0,0,0,0,0,0,0,0,-2.8107,-2.811,-2.822,-2.822,-2.8221,-2.8257,-2.8258,-2.8258,-2.8209,-2.8207,-2.8205,-2.8203,-2.8241,-2.8244,-2.8247,0,0,0,0,0,0,0,0,0,0,0,0,0,-2.8152,-2.811,-2.822,-2.8201,-2.8199,-2.8257,-2.8258,-2.8258,-2.821,-2.8207,-2.8204,-2.8202,-2.824,-2.8243,-2.8247,-2.8325,0,0,-2.8259,-2.8261,0,0,0,0,0,0,0,0,-2.8149,-2.8156,-2.8203,-2.8202,-2.8201,-2.8226,-2.8232,-2.8281,-2.821,-2.8206,-2.8204,-2.8201,-2.8238,-2.8242,-2.8255,-2.8327,-2.8328,-2.826,-2.8262,-2.8264,-2.8265,0,0,0,0,0,0,0,-2.8146,-2.8154,-2.8235,-2.8204,-2.8203,-2.8191,-2.8194,-2.8241,-2.8237,-2.8206,-2.8203,-2.8208,-2.8237,-2.8251,-2.8256,-2.8329,-2.826,-2.8263,-2.8266,-2.8267,-2.8469,-2.8471,0,0,0,0,0,0,-2.8145,-2.8152,-2.8233,-2.8236,-2.8168,-2.8195,-2.8199,-2.822,-2.8236,-2.8236,-2.821,-2.8205,-2.8246,-2.8251,-2.8257,-2.8349,-2.8264,-2.8268,-2.827,-2.8466,-2.8469,-2.8472,0,0,0,0,0,0,-2.8143,-2.8153,-2.8232,-2.8193,-2.8202,-2.82,-2.8225,-2.8223,-2.8237,-2.8239,-2.8238,-2.8225,-2.8244,-2.8251,-2.8309,-2.835,-2.8269,-2.8273,-2.8462,-2.8467,-2.8471,-2.8535,0,0,0,0,0,0,-2.814,-2.8152,-2.8181,-2.8194,-2.8204,-2.8283,-2.8227,-2.8225,-2.8244,-2.8238,-2.8253,-2.8253,-2.8242,-2.8303,-2.8313,-2.8354,-2.8276,-2.8458,-2.8464,-2.8469,-2.8529,-2.8541,-2.8551,0,0,0,0,0,-2.8136,-2.8197,-2.8183,-2.8193,-2.824,-2.8285,-2.8291,-2.8278,-2.8247,-2.8276,-2.8279,-2.8252,-2.8345,-2.831,-2.832,-2.8363,-2.8456,-2.8462,-2.8469,-2.8524,-2.8538,-2.8551,0,0,0,0,0,0,-2.8189,-2.8198,-2.8183,-2.825,-2.8267,-2.8277,-2.8313,-2.8294,-2.832,-2.8314,-2.8297,-2.8301,-2.8363,-2.8369,-2.833,-2.844,-2.8395,-2.8404,-2.8433,-2.8447,-2.8458,-2.8454,-2.8279,0,0,0,0,0,-2.8208,-2.8244,-2.8251,-2.8309,-2.8319,-2.8315,-2.8334,-2.8323,-2.8341,-2.8347,-2.8353,-2.8371,-2.8404,-2.8426,-2.8457,-2.8531,-2.8533,-2.8565,-2.8576,-2.8586,-2.8593,-2.8633,-2.8648,-2.8494,-2.8494,-2.8494,0,0,-2.8248,-2.8258,-2.8282,-2.832,-2.8332,-2.837,-2.8321,-2.8363,-2.8391,-2.8354,-2.8408,-2.8414,-2.8433,-2.85,-2.8529,-2.8506,-2.8637,-2.8594,-2.8601,-2.8604,-2.8642,-2.8656,-2.8669,-2.8499,-2.8498,-2.8497,0,0,-2.8341,-2.8352,-2.8402,-2.8416,-2.8436,-2.8434,-2.8446,-2.846,-2.8462,-2.8517,-2.8491,-2.8525,-2.8582,-2.8596,-2.8612,-2.8714,-2.8691,-2.8725,-2.8781,-2.8821,-2.8833,-2.8844,-2.888,-2.8893,-2.8733,-2.8733,-2.8733,0,-2.8388,-2.8443,-2.8431,-2.8475,-2.8493,-2.8463,-2.8514,-2.8528,-2.8557,-2.857,-2.8545,-2.8618,-2.8628,-2.8698,-2.8724,-2.8737,-2.8751,-2.8721,-2.8833,-2.8843,-2.8853,-2.8887,-2.8901,-2.8737,-2.8736,-2.8736,-2.8735,0,-2.85,-2.854,-2.8578,-2.8608,-2.8631,-2.8678,-2.8673,-2.8698,-2.8687,-2.8687,-2.8745,-2.8757,-2.879,-2.8807,-2.8795,-2.8876,-2.8861,-2.8835,-2.8789,-2.8871,-2.8903,-2.8917,-2.8742,-2.8741,-2.874,-2.8739,0,0,-2.8623,-2.8647,-2.8662,-2.8675,-2.8697,-2.8727,-2.8774,-2.8808,-2.8829,-2.8851,-2.8891,-2.8942,-2.8918,-2.8935,-2.8926,-2.8961,-2.9042,-2.893,-2.8931,-2.895,-2.9132,-2.9151,-2.9166,-2.9028,-2.9031,-2.9032,-2.913,0,-2.8715,-2.8796,-2.8787,-2.8865,-2.8902,-2.8876,-2.8917,-2.8935,-2.8938,-2.897,-2.8974,-2.901,-2.8976,-2.8987,-2.9021,-2.9025,-2.9078,-2.9018,-2.9064,-2.9066,-2.9058,-2.9183,-2.9202,-2.9293,-2.9143,-2.9145,-2.9146,0,-2.8831,-2.8859,-2.894,-2.8958,-2.8973,-2.901,-2.9041,-2.9072,-2.9093,-2.9093,-2.9114,-2.91,-2.9148,-2.9104,-2.9171,-2.913,-2.9149,-2.9155,-2.9158,-2.916,-2.9109,-2.9187,-2.9322,-2.9335,-2.9166,-2.9164,-2.9163,0,-2.8912,-2.8969,-2.9025,-2.9038,-2.9061,-2.9088,-2.9098,-2.9117,-2.9138,-2.9166,-2.9179,-2.9213,-2.923,-2.9257,-2.9252,-2.922,-2.9321,-2.9275,-2.9321,-2.9322,-2.9341,-2.934,-2.948,-2.9357,-2.9357,-2.9357,-2.9356,0,-2.9014,-2.9064,-2.9062,-2.9096,-2.9153,-2.9144,-2.9201,-2.9208,-2.9226,-2.9262,-2.9242,-2.9277,-2.9269,-2.9304,-2.9301,-2.9357,-2.9365,-2.9367,-2.9365,-2.9367,-2.9367,-2.9378,-2.9371,-2.936,-2.9359,-2.9359,-2.9358,0,-2.9111,-2.9112,-2.9172,-2.9189,-2.9195,-2.9236,-2.9251,-2.9284,-2.9287,-2.9333,-2.9344,-2.9348,-2.9388,-2.9387,-2.9432,-2.943,-2.9499,-2.9491,-2.9492,-2.949,-2.9536,-2.9531,-2.9686,-2.9706,-2.9572,-2.9573,-2.9574,0,-2.9175,-2.9214,-2.9236,-2.9259,-2.9272,-2.9309,-2.9331,-2.9326,-2.935,-2.9378,-2.9408,-2.9447,-2.9477,-2.9543,-2.955,-2.9586,-2.9577,-2.9629,-2.9582,-2.9584,-2.9577,-2.9574,-2.9577,-2.9637,-2.9639,-2.964,-2.9641,0,-2.9288,-2.9288,-2.932,-2.9354,-2.9382,-2.9408,-2.9432,-2.9452,-2.9449,-2.9478,-2.9519,-2.9543,-2.959,-2.9629,-2.9663,-2.9675,-2.9658,-2.9657,-2.9669,-2.9671,-2.9669,-2.967,-2.9515,-2.9652,-2.9651,-2.965,-2.965,-2.9649,-2.937,-2.9403,-2.9425,-2.9463,-2.9481,-2.9505,-2.9537,-2.9546,-2.958,-2.9618,-2.9613,-2.9659,-2.9682,-2.9727,-2.9742,-2.9779,-2.976,-2.9778,-2.9782,-2.9787,-2.9791,-2.9666,-2.9785,-2.9785,-2.9785,-2.9784,-2.9784,0,-2.9481,-2.9495,-2.953,-2.9565,-2.9595,-2.9579,-2.9606,-2.9632,-2.9673,-2.9696,-2.9727,-2.9775,-2.9814,-2.9826,-2.9863,-2.989,-2.9884,-2.99,-2.9897,-2.99,-2.9806,-2.9791,-2.9905,-2.9905,-2.9905,-2.9905,-2.9905,-2.9905,-2.9542,-2.9598,-2.9601,-2.9667,-2.968,-2.9725,-2.9742,-2.9764,-2.9783,-2.9838,-2.987,-2.9878,-2.9897,-2.9937,-2.9972,-2.9974,-2.9988,-3.0008,-3.0008,-2.9919,-2.9906,-2.9895,-2.9881,-3.0012,-3.0012,-3.0098,-3.0099,-3.01]},{"header":{"parameterUnit":"m.s-1","parameterCategory":1,"la1":30.2991,"la2":30.254,"lo1":-89.0895,"lo2":-89.0444,"dy":0.0017,"dx":0.0017,"nx":28,"ny":28,"refTime":"2023-10-22T21:00:00:Z","depth":0,"parameterNumber":3,"parameterNumberName":"V-component_of_WINDS"},"data":[0,0,0,0,0,0,0,0,0,0,0,0,0,0,0,0,0,0,0,0,0,0,0,0,0,0,0,0,0,0,0,0,0,0,0,0,0,0,0,0,0,0,0,0,0,0,0,0,0,0,0,0,0,0,0,0,0,0,0.7874,0.7874,0,0.7923,0.7924,0.7924,0.7976,0.7976,0.7977,0.7978,0.8026,0.8027,0.8028,0,0,0,0,0,0,0,0,0,0,0,0,0,0.7822,0.7822,0.7873,0.7874,0.7875,0.7923,0.7924,0.7925,0.7976,0.7977,0.7977,0.7978,0.8026,0.8027,0.8028,0,0,0,0,0,0,0,0,0,0,0,0,0,0.7855,0.7823,0.7873,0.7906,0.791,0.7923,0.7924,0.7925,0.7975,0.7977,0.7978,0.7979,0.8026,0.8027,0.8028,0.8012,0,0,0.8031,0.8031,0,0,0,0,0,0,0,0,0.7853,0.7857,0.7901,0.7904,0.7908,0.7945,0.7924,0.7954,0.7975,0.795,0.7978,0.7979,0.7998,0.8001,0.8008,0.8014,0.8017,0.8031,0.8031,0.8032,0.8032,0,0,0,0,0,0,0,0.7851,0.7855,0.7893,0.7901,0.7906,0.7918,0.7924,0.7929,0.7967,0.7953,0.7956,0.7962,0.8,0.8007,0.801,0.8017,0.8031,0.8031,0.8032,0.8032,0.8015,0.8014,0,0,0,0,0,0,0.7844,0.7853,0.7892,0.7895,0.7883,0.7918,0.7925,0.7932,0.7968,0.7974,0.7961,0.7964,0.8005,0.8009,0.8012,0.7997,0.8032,0.8032,0.8033,0.8016,0.8015,0.8014,0,0,0,0,0,0,0.7842,0.7847,0.789,0.7875,0.7881,0.7918,0.7925,0.7932,0.7939,0.7974,0.7981,0.7961,0.8006,0.801,0.8012,0.7999,0.8033,0.8034,0.8017,0.8016,0.8014,0.7966,0,0,0,0,0,0,0.7841,0.7846,0.784,0.7874,0.7882,0.7889,0.7924,0.7932,0.7941,0.7946,0.7976,0.7982,0.8007,0.8011,0.8013,0.8001,0.8035,0.8019,0.8017,0.8015,0.7969,0.7963,0.7958,0,0,0,0,0,0.7838,0.7824,0.784,0.7844,0.7876,0.7888,0.7893,0.7923,0.794,0.7934,0.7957,0.7981,0.8,0.801,0.8014,0.8002,0.802,0.8017,0.8015,0.7972,0.7965,0.7959,0,0,0,0,0,0,0.7786,0.7829,0.7847,0.7843,0.7862,0.7897,0.7891,0.7914,0.7928,0.7931,0.7968,0.7974,0.7972,0.7987,0.7997,0.799,0.8013,0.8012,0.7979,0.7973,0.7968,0.7964,0.8035,0,0,0,0,0,0.7774,0.7781,0.7818,0.7811,0.782,0.7854,0.7861,0.7882,0.7903,0.7911,0.7934,0.7952,0.7963,0.7969,0.798,0.7972,0.798,0.7966,0.796,0.7956,0.7954,0.7952,0.7946,0.8006,0.8006,0.8006,0,0,0.7749,0.7774,0.7776,0.7801,0.7819,0.7825,0.786,0.7865,0.787,0.7912,0.7915,0.7933,0.7956,0.7953,0.7953,0.7966,0.7939,0.7953,0.7949,0.7949,0.7949,0.7943,0.7938,0.8005,0.8005,0.8005,0,0,0.7707,0.7726,0.7723,0.774,0.7767,0.779,0.7789,0.7822,0.7835,0.784,0.7871,0.7878,0.7895,0.7911,0.7921,0.7887,0.791,0.789,0.7861,0.7859,0.7854,0.785,0.7839,0.7834,0.7888,0.7888,0.7888,0,0.7672,0.7684,0.7718,0.7722,0.7733,0.7772,0.7769,0.7784,0.7812,0.7819,0.7833,0.7857,0.7875,0.7877,0.7869,0.7876,0.7876,0.7886,0.7852,0.7848,0.7845,0.7835,0.783,0.7885,0.7885,0.7886,0.7886,0,0.7641,0.7648,0.7643,0.7671,0.7681,0.7681,0.7715,0.7722,0.7743,0.7765,0.7769,0.7793,0.7811,0.7813,0.7833,0.7818,0.7826,0.7846,0.787,0.7836,0.7827,0.7823,0.7881,0.7882,0.7883,0.7884,0,0,0.7565,0.7614,0.7611,0.7625,0.7658,0.7664,0.7667,0.7686,0.769,0.7709,0.7712,0.7727,0.7746,0.7758,0.7781,0.7779,0.7752,0.7799,0.78,0.779,0.7737,0.7722,0.7717,0.7767,0.7767,0.7766,0.7736,0,0.7529,0.7537,0.7569,0.7567,0.7575,0.7613,0.7616,0.7636,0.7657,0.7667,0.769,0.77,0.7724,0.7732,0.7731,0.7755,0.7742,0.7758,0.777,0.777,0.7763,0.7712,0.7695,0.7665,0.7732,0.7731,0.7731,0,0.7487,0.7505,0.7504,0.7539,0.7543,0.7545,0.7566,0.7574,0.7599,0.7614,0.7628,0.7654,0.766,0.7683,0.7691,0.7701,0.7709,0.7721,0.7721,0.7723,0.7748,0.7712,0.7656,0.7651,0.7726,0.7726,0.7726,0,0.7432,0.7456,0.7459,0.747,0.751,0.7511,0.7527,0.7553,0.7563,0.758,0.7587,0.7605,0.7614,0.7628,0.7658,0.7672,0.7663,0.7689,0.7675,0.7675,0.7671,0.7671,0.7615,0.7676,0.7676,0.7676,0.7676,0,0.7388,0.7386,0.7436,0.7437,0.7437,0.7474,0.7472,0.7492,0.7515,0.7522,0.7556,0.7561,0.7601,0.7611,0.7635,0.7638,0.7642,0.7655,0.7661,0.7651,0.765,0.7656,0.7659,0.7675,0.7675,0.7675,0.7676,0,0.7327,0.736,0.7366,0.7404,0.7414,0.7412,0.7445,0.7448,0.7472,0.748,0.7483,0.752,0.7534,0.7566,0.7588,0.7604,0.7601,0.7613,0.7593,0.7597,0.7582,0.7583,0.7528,0.7523,0.7587,0.7586,0.7586,0,0.7296,0.7296,0.7335,0.7343,0.7358,0.7369,0.738,0.7417,0.7427,0.7456,0.7456,0.7472,0.7488,0.7508,0.7536,0.7553,0.7565,0.7545,0.7568,0.7559,0.7565,0.7565,0.7565,0.754,0.7539,0.7538,0.7538,0,0.7239,0.7256,0.727,0.7291,0.7303,0.7321,0.734,0.7344,0.7386,0.7395,0.741,0.7422,0.7446,0.7462,0.7484,0.7501,0.7526,0.753,0.7528,0.7518,0.7507,0.7513,0.7579,0.7531,0.7532,0.7532,0.7533,0.7533,0.7192,0.7194,0.7222,0.7238,0.7257,0.7275,0.728,0.7306,0.7319,0.7342,0.7363,0.7376,0.7402,0.7435,0.745,0.7461,0.7474,0.7471,0.747,0.7468,0.7464,0.7506,0.7465,0.7465,0.7466,0.7466,0.7466,0,0.7136,0.7157,0.7171,0.7198,0.7211,0.7235,0.7259,0.7267,0.7279,0.7301,0.7316,0.7334,0.7351,0.7382,0.7401,0.7404,0.7416,0.7407,0.7407,0.7411,0.7452,0.7452,0.7397,0.7397,0.7397,0.7397,0.7397,0.7397,0.7109,0.7114,0.7135,0.715,0.7171,0.7185,0.7197,0.7213,0.7232,0.7251,0.7265,0.7286,0.7312,0.7334,0.735,0.7359,0.7364,0.7352,0.7364,0.7401,0.7408,0.7414,0.7414,0.7353,0.7353,0.7323,0.7322,0.7322]}]]